Weather History for KDPL - November, 2013

Change the Weather History Date:

Friday, November 22, 2013

  Actual Average (KGSB) Record (KGSB)
Temperature  
Mean Temperature 62 °F -  
Max Temperature 73 °F 62 °F 78 °F (1999)
Min Temperature 52 °F 41 °F 23 °F (2000)
Degree Days  
Heating Degree Days 2    
Growing Degree Days 12 (Base 50)    
Moisture  
Dew Point 57 °F    
Average Humidity 86    
Maximum Humidity 98    
Minimum Humidity 58    
Precipitation  
Precipitation 0.00 in - - ()
Sea Level Pressure  
Sea Level Pressure 30.26 in    
Wind  
Wind Speed 1 mph (SSW)    
Max Wind Speed 9 mph    
Max Gust Speed -    
Visibility 7 miles    
Events Fog    
Averages and records for this station are not official NWS values.
T = Trace of Precipitation, MM = Missing Value Source: NWS Daily Summary

Daily Weather History Graph

Daily Weather History Graph

Search for Another Location

Airport or City:

Trip Planner

Search our weather history database for the weather conditions in past years. The results will help you decide how hot, cold, wet, or windy it might be!

Date:

Astronomy

Nov. 22, 2013 Rise Set
Actual Time 6:53 AM EST 5:02 PM EST
Civil Twilight 6:26 AM EST 5:29 PM EST
Nautical Twilight 5:55 AM EST 6:00 PM EST
Astronomical Twilight 5:24 AM EST 6:31 PM EST
Moon 9:29 PM EST (11/22) 10:38 AM EST (11/22)
Length of Visible Light 11h 03m
Length of Day
10h 09m
Waning Gibbous, 78% of the Moon is Illuminated
Nov 22
Waning Gibbous
Nov 25
Last Quarter
Dec 2
New
Dec 9
First Quarter
Dec 17
Full

Hourly Weather History & Observations

Time (EST) Temp. Dew Point Humidity Pressure Visibility Wind Dir Wind Speed Gust Speed Precip Events Conditions
12:15 AM 54.0 °F 53.2 °F 97% 30.39 in 2.0 mi North 3.5 mph - N/A   Overcast
12:35 AM 53.8 °F 53.1 °F 97% 30.38 in 1.5 mi Calm Calm - N/A   Overcast
12:55 AM 53.8 °F 53.1 °F 97% 30.38 in 1.0 mi Calm Calm - N/A   Overcast
1:15 AM 54.0 °F 53.2 °F 97% 30.38 in 1.0 mi Calm Calm - N/A   Overcast
1:35 AM 54.0 °F 53.2 °F 97% 30.37 in 0.5 mi Calm Calm - N/A Fog Fog
1:55 AM 53.8 °F 53.1 °F 97% 30.37 in 0.5 mi Calm Calm - N/A Fog Fog
2:15 AM 53.8 °F 53.1 °F 97% 30.37 in 0.2 mi Calm Calm - N/A Fog Fog
2:35 AM 53.8 °F 53.1 °F 97% 30.37 in 0.2 mi Calm Calm - N/A Fog Fog
2:55 AM 53.8 °F 53.1 °F 97% 30.37 in 0.2 mi Calm Calm - N/A Fog Fog
3:15 AM 53.6 °F 52.9 °F 97% 30.36 in 0.2 mi Calm Calm - N/A Fog Fog
3:35 AM 53.6 °F 52.7 °F 97% 30.36 in 0.2 mi Calm Calm - N/A Fog Fog
3:55 AM 53.4 °F 52.7 °F 97% 30.36 in 0.5 mi Calm Calm - N/A Fog Fog
4:15 AM 53.6 °F 52.7 °F 97% 30.36 in 0.5 mi Calm Calm - N/A Fog Fog
4:35 AM 53.4 °F 52.7 °F 97% 30.36 in 0.8 mi Calm Calm - N/A   Overcast
4:55 AM 53.2 °F 52.5 °F 97% 30.36 in 0.8 mi Calm Calm - N/A   Overcast
5:15 AM 53.1 °F 52.3 °F 97% 30.36 in 0.2 mi Calm Calm - N/A Fog Fog
5:35 AM 52.9 °F 52.2 °F 97% 30.35 in 1.8 mi Calm Calm - N/A   Overcast
5:55 AM 52.9 °F 52.2 °F 97% 30.35 in 0.5 mi Calm Calm - N/A Fog Fog
6:15 AM 52.7 °F 52.0 °F 97% 30.35 in 2.5 mi Calm Calm - N/A   Overcast
6:35 AM 52.7 °F 52.0 °F 97% 30.35 in 2.5 mi Calm Calm - N/A   Overcast
6:55 AM 52.9 °F 52.2 °F 97% 30.35 in 3.0 mi Calm Calm - N/A   Overcast
7:15 AM 52.9 °F 52.2 °F 97% 30.35 in 4.0 mi Calm Calm - N/A   Overcast
7:35 AM 53.1 °F 52.3 °F 97% 30.35 in 3.0 mi Calm Calm - N/A   Overcast
7:55 AM 53.2 °F 52.7 °F 98% 30.34 in 3.0 mi Calm Calm - N/A   Overcast
8:15 AM 53.6 °F 52.9 °F 97% 30.33 in 4.0 mi ESE 4.6 mph - N/A   Overcast
8:35 AM 54.5 °F 53.8 °F 97% 30.33 in 7.0 mi Calm Calm - N/A   Overcast
8:55 AM 54.9 °F 54.3 °F 98% 30.33 in 7.0 mi Calm Calm - N/A   Overcast
9:15 AM 56.5 °F 55.6 °F 97% 30.33 in 10.0 mi Calm Calm - N/A   Mostly Cloudy
9:35 AM 57.4 °F 56.7 °F 97% 30.32 in 10.0 mi SE 4.6 mph - N/A   Clear
9:55 AM 59.2 °F 58.3 °F 97% 30.32 in 10.0 mi SE 3.5 mph - N/A   Clear
10:15 AM 60.3 °F 59.0 °F 96% 30.32 in 7.0 mi SSE 3.5 mph - N/A   Clear
10:35 AM 62.8 °F 60.3 °F 91% 30.31 in 10.0 mi SE 4.6 mph - N/A   Clear
10:55 AM 68.4 °F 58.8 °F 71% 30.31 in 10.0 mi SW 5.8 mph - N/A   Clear
11:15 AM 69.4 °F 59.0 °F 69% 30.30 in 10.0 mi Calm Calm - N/A   Scattered Clouds
11:35 AM 70.3 °F 59.2 °F 68% 30.29 in 10.0 mi Calm Calm - N/A   Mostly Cloudy
11:55 AM 71.8 °F 58.5 °F 63% 30.28 in 10.0 mi SSW 4.6 mph - N/A   Scattered Clouds
12:15 PM 72.5 °F 58.5 °F 61% 30.26 in 10.0 mi SSW 4.6 mph - N/A   Scattered Clouds
12:35 PM 73.0 °F 58.1 °F 59% 30.25 in 10.0 mi WSW 9.2 mph - N/A   Scattered Clouds
12:55 PM 73.2 °F 57.7 °F 58% 30.24 in 10.0 mi South 5.8 mph - N/A   Scattered Clouds
1:15 PM 73.6 °F 57.9 °F 58% 30.24 in 10.0 mi SW 5.8 mph - N/A   Scattered Clouds
1:35 PM 72.5 °F 58.1 °F 60% 30.23 in 10.0 mi Calm Calm - N/A   Mostly Cloudy
1:55 PM 73.4 °F 58.1 °F 59% 30.22 in 10.0 mi SSW 3.5 mph - N/A   Overcast
2:15 PM 72.5 °F 58.3 °F 61% 30.22 in 10.0 mi SSW 3.5 mph - N/A   Overcast
2:35 PM 72.0 °F 58.1 °F 62% 30.21 in 10.0 mi SW 4.6 mph - N/A   Overcast
2:55 PM 71.4 °F 58.8 °F 64% 30.21 in 10.0 mi Calm Calm - N/A   Overcast
3:15 PM 70.7 °F 59.0 °F 66% 30.21 in 10.0 mi SW 3.5 mph - N/A   Overcast
3:35 PM 70.5 °F 60.1 °F 69% 30.20 in 10.0 mi Calm Calm - N/A   Overcast
3:55 PM 70.2 °F 60.1 °F 70% 30.19 in 10.0 mi Calm Calm - N/A   Overcast
4:15 PM 70.2 °F 60.3 °F 71% 30.18 in 10.0 mi Calm Calm - N/A   Mostly Cloudy
4:35 PM 69.6 °F 59.9 °F 71% 30.18 in 10.0 mi Calm Calm - N/A   Scattered Clouds
4:55 PM 67.8 °F 60.1 °F 76% 30.17 in 10.0 mi Calm Calm - N/A   Clear
5:15 PM 65.8 °F 60.3 °F 82% 30.17 in 7.0 mi Calm Calm - N/A   Scattered Clouds
5:35 PM 66.0 °F 60.1 °F 81% 30.18 in 10.0 mi Calm Calm - N/A   Scattered Clouds
5:55 PM 65.5 °F 60.3 °F 83% 30.18 in 10.0 mi Calm Calm - N/A   Scattered Clouds
6:15 PM 64.8 °F 60.6 °F 86% 30.17 in 10.0 mi Calm Calm - N/A   Scattered Clouds
6:35 PM 63.9 °F 60.3 °F 88% 30.17 in 10.0 mi Calm Calm - N/A   Scattered Clouds
6:55 PM 63.5 °F 60.3 °F 89% 30.16 in 10.0 mi Calm Calm - N/A   Clear
7:15 PM 63.5 °F 60.1 °F 89% 30.16 in 10.0 mi SW 3.5 mph - N/A   Clear
7:35 PM 63.5 °F 60.3 °F 89% 30.15 in 10.0 mi Calm Calm - N/A   Scattered Clouds
7:55 PM 63.1 °F 60.4 °F 91% 30.15 in 10.0 mi Calm Calm - N/A   Mostly Cloudy
8:15 PM 63.5 °F 60.8 °F 91% 30.15 in 10.0 mi Calm Calm - N/A   Overcast
8:35 PM 63.5 °F 60.8 °F 91% 30.14 in 10.0 mi Calm Calm - N/A   Overcast
8:55 PM 63.7 °F 61.0 °F 91% 30.14 in 10.0 mi SW 3.5 mph - N/A   Scattered Clouds
9:15 PM 63.5 °F 61.0 °F 91% 30.14 in 10.0 mi SW 3.5 mph - N/A   Mostly Cloudy
9:35 PM 63.7 °F 60.8 °F 90% 30.13 in 10.0 mi Calm Calm - N/A   Scattered Clouds
9:55 PM 63.7 °F 60.8 °F 90% 30.14 in 10.0 mi Calm Calm - N/A   Scattered Clouds
10:15 PM 63.9 °F 61.0 °F 90% 30.13 in 10.0 mi SW 4.6 mph - N/A   Overcast
10:35 PM 63.9 °F 61.0 °F 90% 30.13 in 10.0 mi Calm Calm - N/A   Overcast
10:55 PM 63.7 °F 61.0 °F 91% 30.12 in 10.0 mi SW 3.5 mph - N/A   Mostly Cloudy
11:15 PM 63.5 °F 60.8 °F 91% 30.12 in 10.0 mi Calm Calm - N/A   Mostly Cloudy
11:35 PM 63.3 °F 60.8 °F 91% 30.11 in 10.0 mi Calm Calm - N/A   Overcast
11:55 PM 63.3 °F 60.8 °F 91% 30.11 in 10.0 mi Calm Calm - N/A   Overcast